Tracking 33159 objects as of 7-Feb-2026
HD Live streaming from Space Station
objects crossing your sky now

SKYNET 4E

Track SKYNET 4E now!
SKYNET 4E is classified as:


NORAD ID: 25639
Int'l Code: 1999-009B
Perigee: 36,128.2 km
Apogee: 36,165.8 km
Inclination: 12.0 °
Period: 1,454.2 minutes
Semi major axis: 42517 km
RCS: 5.2477 m2 (large)
Launch date: February 26, 1999
Source: United Kingdom (UK)
Launch site: FRENCH GUIANA (FRGUI)

Used primarily by UK's armed forces, government departments, agencies and other organizations that require secure communications.
Your satellite tracking list
Your tracking list is empty




NASA's NSSDC Master Catalog

Two Line Element Set (TLE):
1 25639U 99009B   26037.66571376  .00000040  00000-0  00000+0 0  9994
2 25639  11.9873   9.7978 0004417 271.3519 169.0523  0.99024707 49861
Source of the keplerian elements: AFSPC